Location: Newark
(51.3318°N, 0.0053°E)
Time: 11:40:51
(UTC+00:00)

MOZHAYETS 4 - Pass Details

Date: 04 July 2022
Orbit: 660 x 679 km, 98.2° (Epoch: 12 August)

Event Time Altitude Azimuth Distance (km) Brightness Sun altitude
Exits shadow 02:38:38 - 182° (S) 2,460 10.1 -8.4°
Reaches altitude 10° 02:39:32 10° 185° (S) 2,106 9.8 -8.3°
Maximum altitude 02:44:00 49° 260° (W) 874 8.0 -7.9°
Drops below altitude 10° 02:48:28 10° 336° (NNW) 2,112 10.7 -7.5°
Sets 02:50:47 0° 342° (NNW) 3,027 11.6 -7.3°
